Location: York
(31.8935°S, 116.7682°E)
Time: 01:06:00
(UTC+08:00)

ISS - Pass Details

Date: 12 December 2021
Orbit: 413 x 422 km, 51.6° (Epoch: 20 January)

Event Time Altitude Azimuth Distance (km) Brightness Sun altitude
Rises 04:04:57 0° 212° (SSW) 2,381 0.1 -10.8°
Reaches altitude 10° 04:07:24 10° 195° (SSW) 1,513 -0.7 -10.4°
Maximum altitude 04:10:04 21° 144° (SE) 1,012 -0.8 -10.0°
Drops below altitude 10° 04:12:43 10° 92° (E) 1,505 0.0 -9.5°
Sets 04:15:09 0° 75° (ENE) 2,365 0.7 -9.1°
